FIN5TC BIKF-EFHK

Flight info

Callsign FIN5TC
Flight time 3h 21m
Altitude 37000
Route LUTER3D LUTER DCT 64N010W 64N000E/N0449F370 DCT NOMGA DCT DEGED DCT UXADA Y349 AMROT Y362 LAKUT
Aircraft A319/M-SDE3FGHIRWY/LB1

Departure

Time 2026-04-21 18:11
Airport Keflavik International Airport (BIKF)

Arrival

Time 2026-04-21 21:33
Airport Helsinki Vantaa Airport (EFHK)
Time Latitude Longitude Altitude Speed Heading
2026-04-21 17:29 63.99422 -22.62472 137 ft 0 kts 90°
2026-04-21 17:59 63.99422 -22.62486 142 ft 4 kts 90°
2026-04-21 18:00 63.99422 -22.62548 142 ft 4 kts 90°
2026-04-21 18:00 63.99422 -22.62604 142 ft 2 kts 89°
2026-04-21 18:00 63.99425 -22.62651 142 ft 4 kts 145°
2026-04-21 18:00 63.99448 -22.62658 142 ft 4 kts 199°
2026-04-21 18:01 63.99439 -22.62667 142 ft 4 kts 202°
2026-04-21 18:01 63.99415 -22.62692 144 ft 4 kts 204°
2026-04-21 18:01 63.99406 -22.62701 142 ft 0 kts 204°
2026-04-21 18:04 63.99405 -22.62701 145 ft 0 kts 200°
2026-04-21 18:04 63.99390 -22.62716 142 ft 4 kts 207°
2026-04-21 18:04 63.99348 -22.62748 142 ft 8 kts 190°
2026-04-21 18:04 63.99283 -22.62742 142 ft 11 kts 172°
2026-04-21 18:05 63.99210 -22.62680 142 ft 12 kts 173°
2026-04-21 18:05 63.99171 -22.62532 142 ft 13 kts 89°
2026-04-21 18:05 63.99173 -22.62300 142 ft 15 kts 89°
2026-04-21 18:05 63.99173 -22.62052 142 ft 16 kts 90°
2026-04-21 18:06 63.99174 -22.61796 146 ft 15 kts 90°
2026-04-21 18:06 63.99174 -22.61576 150 ft 13 kts 90°
2026-04-21 18:06 63.99174 -22.61395 154 ft 11 kts 89°
2026-04-21 18:06 63.99175 -22.61225 158 ft 11 kts 90°
2026-04-21 18:07 63.99174 -22.61059 161 ft 11 kts 90°
2026-04-21 18:07 63.99173 -22.60880 165 ft 12 kts 91°
2026-04-21 18:07 63.99173 -22.60697 172 ft 12 kts 89°
2026-04-21 18:07 63.99174 -22.60506 177 ft 13 kts 93°
2026-04-21 18:08 63.99173 -22.60250 176 ft 19 kts 90°
2026-04-21 18:08 63.99135 -22.59949 177 ft 20 kts 135°
2026-04-21 18:08 63.99045 -22.59750 177 ft 17 kts 135°
2026-04-21 18:08 63.98967 -22.59574 181 ft 14 kts 136°
2026-04-21 18:09 63.98891 -22.59413 178 ft 16 kts 148°
2026-04-21 18:09 63.98771 -22.59321 174 ft 19 kts 162°
2026-04-21 18:09 63.98647 -22.59291 178 ft 16 kts 183°
2026-04-21 18:09 63.98562 -22.59297 182 ft 10 kts 180°
2026-04-21 18:10 63.98499 -22.59327 181 ft 8 kts 243°
2026-04-21 18:10 63.98496 -22.59391 182 ft 0 kts 270°
2026-04-21 18:10 63.98507 -22.59718 182 ft 58 kts 270°
2026-04-21 18:10 63.98509 -22.61212 164 ft 129 kts 271°
2026-04-21 18:11 63.98523 -22.63543 548 ft 149 kts 272°
2026-04-21 18:11 63.98530 -22.65894 1252 ft 149 kts 271°
2026-04-21 18:11 63.98521 -22.68311 1813 ft 161 kts 271°
2026-04-21 18:11 63.98515 -22.71039 2214 ft 183 kts 271°
2026-04-21 18:12 63.98511 -22.74130 2606 ft 206 kts 271°
2026-04-21 18:12 63.98319 -22.77374 3402 ft 212 kts 246°
2026-04-21 18:12 63.97267 -22.79781 4075 ft 231 kts 206°
2026-04-21 18:12 63.95627 -22.80560 4652 ft 251 kts 184°
2026-04-21 18:13 63.93856 -22.80470 5532 ft 258 kts 176°
2026-04-21 18:13 63.92149 -22.79104 6384 ft 267 kts 147°
2026-04-21 18:13 63.90810 -22.76144 7252 ft 275 kts 126°
2026-04-21 18:13 63.90051 -22.72074 7919 ft 287 kts 98°
2026-04-21 18:14 63.89755 -22.62931 9643 ft 294 kts 92°
2026-04-21 18:14 63.89634 -22.58275 10513 ft 297 kts 92°
2026-04-21 18:14 63.89578 -22.53504 11067 ft 312 kts 85°
2026-04-21 18:15 63.89962 -22.48485 11392 ft 332 kts 72°
2026-04-21 18:15 63.90811 -22.43529 11981 ft 341 kts 66°
2026-04-21 18:15 63.91711 -22.38508 12749 ft 345 kts 67°
2026-04-21 18:15 63.92602 -22.33427 13475 ft 350 kts 68°
2026-04-21 18:16 63.93502 -22.28246 14240 ft 353 kts 68°
2026-04-21 18:16 63.94407 -22.23018 14943 ft 357 kts 68°
2026-04-21 18:16 63.95318 -22.17745 15611 ft 360 kts 68°
2026-04-21 18:16 63.96234 -22.12425 16297 ft 362 kts 68°
2026-04-21 18:17 63.97158 -22.07065 16962 ft 365 kts 68°
2026-04-21 18:17 63.98089 -22.01662 17644 ft 368 kts 68°
2026-04-21 18:17 63.98969 -21.96157 18290 ft 371 kts 71°
2026-04-21 18:17 63.99745 -21.90534 18960 ft 374 kts 73°
2026-04-21 18:18 64.00468 -21.84801 19544 ft 377 kts 74°
2026-04-21 18:18 64.01169 -21.79031 20120 ft 379 kts 74°
2026-04-21 18:18 64.01873 -21.73215 20728 ft 382 kts 74°
2026-04-21 18:18 64.02592 -21.67373 21315 ft 384 kts 73°
2026-04-21 18:19 64.03328 -21.61504 21927 ft 386 kts 73°
2026-04-21 18:19 64.04076 -21.55614 22539 ft 387 kts 73°
2026-04-21 18:19 64.04830 -21.49697 23119 ft 390 kts 73°
2026-04-21 18:19 64.05588 -21.43741 23698 ft 392 kts 73°
2026-04-21 18:20 64.06348 -21.37735 24246 ft 395 kts 73°
2026-04-21 18:20 64.07105 -21.31694 24698 ft 396 kts 73°
2026-04-21 18:20 64.07861 -21.25626 25162 ft 398 kts 73°
2026-04-21 18:20 64.08505 -21.19455 25582 ft 401 kts 81°
2026-04-21 18:21 64.08799 -21.13105 26025 ft 403 kts 84°
2026-04-21 18:21 64.09058 -21.06793 26440 ft 405 kts 84°
2026-04-21 18:21 64.09323 -21.00358 26863 ft 408 kts 83°
2026-04-21 18:21 64.09590 -20.93799 27261 ft 411 kts 83°
2026-04-21 18:22 64.09848 -20.87366 27672 ft 412 kts 83°
2026-04-21 18:22 64.10109 -20.80745 28154 ft 413 kts 84°
2026-04-21 18:22 64.10362 -20.74268 28584 ft 414 kts 83°
2026-04-21 18:22 64.10618 -20.67688 29000 ft 416 kts 84°
2026-04-21 18:23 64.10877 -20.60988 29411 ft 418 kts 84°
2026-04-21 18:23 64.11132 -20.54337 29804 ft 420 kts 84°
2026-04-21 18:23 64.11378 -20.47748 30183 ft 422 kts 84°
2026-04-21 18:23 64.11625 -20.41035 30560 ft 424 kts 84°
2026-04-21 18:24 64.11854 -20.34285 30887 ft 427 kts 84°
2026-04-21 18:24 64.12046 -20.27504 31205 ft 428 kts 85°
2026-04-21 18:24 64.12209 -20.20688 31524 ft 429 kts 86°
2026-04-21 18:24 64.12355 -20.13850 31841 ft 430 kts 86°
2026-04-21 18:25 64.12496 -20.07003 32166 ft 431 kts 86°
2026-04-21 18:25 64.12636 -20.00197 32729 ft 425 kts 86°
2026-04-21 18:25 64.12773 -19.93472 33308 ft 420 kts 87°
2026-04-21 18:25 64.12908 -19.86830 33844 ft 416 kts 87°
2026-04-21 18:26 64.13042 -19.80244 34348 ft 412 kts 87°
2026-04-21 18:26 64.13175 -19.73720 34827 ft 409 kts 87°
2026-04-21 18:26 64.13307 -19.67232 35219 ft 407 kts 87°
2026-04-21 18:26 64.13433 -19.60779 35541 ft 406 kts 87°
2026-04-21 18:27 64.13553 -19.54325 35854 ft 406 kts 87°
2026-04-21 18:27 64.13672 -19.47863 36115 ft 406 kts 87°
2026-04-21 18:27 64.13790 -19.41395 36380 ft 406 kts 87°
2026-04-21 18:27 64.13901 -19.34929 36637 ft 407 kts 87°
2026-04-21 18:28 64.14009 -19.28459 36888 ft 407 kts 87°
2026-04-21 18:28 64.14114 -19.21990 37199 ft 405 kts 87°
2026-04-21 18:28 64.14219 -19.15551 37509 ft 404 kts 87°
2026-04-21 18:28 64.14322 -19.09123 37663 ft 404 kts 87°
2026-04-21 18:29 64.14421 -19.02711 37689 ft 402 kts 87°
2026-04-21 18:29 64.14606 -18.89943 37686 ft 401 kts 88°
2026-04-21 18:30 64.14779 -18.77175 37673 ft 401 kts 88°
2026-04-21 18:30 64.14943 -18.64427 37676 ft 401 kts 88°
2026-04-21 18:31 64.15095 -18.51659 37667 ft 401 kts 88°
2026-04-21 18:31 64.15237 -18.38892 37679 ft 401 kts 88°
2026-04-21 18:32 64.15369 -18.26129 37702 ft 400 kts 88°
2026-04-21 18:32 64.15489 -18.13389 37687 ft 400 kts 88°
2026-04-21 18:33 64.15594 -18.00640 37673 ft 400 kts 88°
2026-04-21 18:33 64.15688 -17.87879 37651 ft 400 kts 88°
2026-04-21 18:34 64.15770 -17.75140 37646 ft 400 kts 88°
2026-04-21 18:34 64.15846 -17.62380 37645 ft 400 kts 88°
2026-04-21 18:35 64.15904 -17.51782 37643 ft 400 kts 89°
2026-04-21 18:35 64.15971 -17.36990 37648 ft 399 kts 89°
2026-04-21 18:36 64.16012 -17.24284 37634 ft 398 kts 89°
2026-04-21 18:36 64.16043 -17.11582 37632 ft 398 kts 89°
2026-04-21 18:37 64.16066 -16.98899 37629 ft 398 kts 89°
2026-04-21 18:37 64.16072 -16.86222 37620 ft 398 kts 89°
2026-04-21 18:38 64.16067 -16.73544 37618 ft 398 kts 89°
2026-04-21 18:38 64.16054 -16.60858 37617 ft 398 kts 89°
2026-04-21 18:39 64.16027 -16.48178 37621 ft 398 kts 89°
2026-04-21 18:39 64.15986 -16.35501 37619 ft 398 kts 90°
2026-04-21 18:40 64.15936 -16.22833 37613 ft 398 kts 90°
2026-04-21 18:40 64.15889 -16.12299 37615 ft 398 kts 90°
2026-04-21 18:41 64.15812 -15.97474 37626 ft 398 kts 90°
2026-04-21 18:41 64.15734 -15.84815 37630 ft 397 kts 90°
2026-04-21 18:42 64.15644 -15.72183 37630 ft 396 kts 90°
2026-04-21 18:42 64.15541 -15.59568 37629 ft 396 kts 90°
2026-04-21 18:43 64.15427 -15.46955 37657 ft 396 kts 90°
2026-04-21 18:43 64.15308 -15.34339 37638 ft 396 kts 90°
2026-04-21 18:44 64.15174 -15.21686 37628 ft 397 kts 90°
2026-04-21 18:44 64.15026 -15.09029 37636 ft 397 kts 91°
2026-04-21 18:45 64.14866 -14.96391 37636 ft 397 kts 91°
2026-04-21 18:45 64.14696 -14.83759 37636 ft 396 kts 91°
2026-04-21 18:46 64.14521 -14.71141 37636 ft 396 kts 91°
2026-04-21 18:46 64.14332 -14.58523 37634 ft 396 kts 91°
2026-04-21 18:47 64.14126 -14.45919 37633 ft 396 kts 91°
2026-04-21 18:47 64.13952 -14.35449 37633 ft 396 kts 91°
2026-04-21 18:48 64.13738 -14.22848 37635 ft 395 kts 91°
2026-04-21 18:48 64.13472 -14.08244 37637 ft 395 kts 91°
2026-04-21 18:49 64.13272 -13.97733 37633 ft 394 kts 91°
2026-04-21 18:49 64.13064 -13.87314 37632 ft 394 kts 92°
2026-04-21 18:50 64.12756 -13.72761 37636 ft 394 kts 92°
2026-04-21 18:50 64.12482 -13.60247 37634 ft 394 kts 92°
2026-04-21 18:51 64.12202 -13.47723 37632 ft 393 kts 92°
2026-04-21 18:51 64.11908 -13.35241 37644 ft 393 kts 92°
2026-04-21 18:52 64.11602 -13.22772 37652 ft 392 kts 92°
2026-04-21 18:52 64.11281 -13.10338 37651 ft 391 kts 92°
2026-04-21 18:53 64.10957 -12.97904 37643 ft 391 kts 92°
2026-04-21 18:53 64.10630 -12.85492 37643 ft 391 kts 92°
2026-04-21 18:54 64.10296 -12.73084 37640 ft 391 kts 92°
2026-04-21 18:54 64.09939 -12.60685 37649 ft 390 kts 92°
2026-04-21 18:55 64.09637 -12.50402 37650 ft 390 kts 92°
2026-04-21 18:55 64.09203 -12.35949 37653 ft 389 kts 93°
2026-04-21 18:56 64.08816 -12.23600 37655 ft 389 kts 93°
2026-04-21 18:56 64.08412 -12.11285 37653 ft 389 kts 93°
2026-04-21 18:57 64.08003 -11.98865 37647 ft 397 kts 93°
2026-04-21 18:57 64.07581 -11.86113 37647 ft 407 kts 93°
2026-04-21 18:58 64.07130 -11.73171 37647 ft 409 kts 93°
2026-04-21 18:58 64.06669 -11.60216 37646 ft 409 kts 93°
2026-04-21 18:59 64.06199 -11.47341 37646 ft 409 kts 94°
2026-04-21 18:59 64.05711 -11.34389 37649 ft 410 kts 94°
2026-04-21 19:00 64.05211 -11.21429 37650 ft 410 kts 94°
2026-04-21 19:00 64.05307 -11.08482 37654 ft 408 kts 85°
2026-04-21 19:01 64.05740 -10.95470 37662 ft 408 kts 85°
2026-04-21 19:01 64.06151 -10.82611 37661 ft 408 kts 85°
2026-04-21 19:02 64.06558 -10.69598 37665 ft 408 kts 85°
2026-04-21 19:02 64.06949 -10.56762 37664 ft 408 kts 85°
2026-04-21 19:03 64.07332 -10.43735 37664 ft 408 kts 85°
2026-04-21 19:03 64.07698 -10.30893 37660 ft 408 kts 86°
2026-04-21 19:04 64.08053 -10.17953 37664 ft 408 kts 85°
2026-04-21 19:04 64.08392 -10.05029 37666 ft 407 kts 86°
2026-04-21 19:05 64.08721 -9.92112 37665 ft 407 kts 86°
2026-04-21 19:05 64.09043 -9.79204 37664 ft 407 kts 86°
2026-04-21 19:06 64.09356 -9.66287 37661 ft 407 kts 86°
2026-04-21 19:06 64.09654 -9.53377 37660 ft 407 kts 86°
2026-04-21 19:07 64.09932 -9.40455 37661 ft 406 kts 86°
2026-04-21 19:07 64.10206 -9.27562 37663 ft 406 kts 86°
2026-04-21 19:08 64.10475 -9.14665 37664 ft 406 kts 86°
2026-04-21 19:08 64.10727 -9.01778 37663 ft 406 kts 86°
2026-04-21 19:09 64.10965 -8.88884 37661 ft 405 kts 86°
2026-04-21 19:09 64.11196 -8.75992 37661 ft 405 kts 86°
2026-04-21 19:10 64.11408 -8.63110 37660 ft 405 kts 86°
2026-04-21 19:10 64.11610 -8.50222 37659 ft 405 kts 87°
2026-04-21 19:11 64.11805 -8.37334 37697 ft 405 kts 87°
2026-04-21 19:11 64.11986 -8.24426 37667 ft 406 kts 87°
2026-04-21 19:12 64.12128 -8.13676 37661 ft 407 kts 87°
2026-04-21 19:12 64.12322 -7.98547 37652 ft 407 kts 87°
2026-04-21 19:13 64.12471 -7.85669 37659 ft 407 kts 87°
2026-04-21 19:13 64.12611 -7.72620 37657 ft 407 kts 87°
2026-04-21 19:14 64.12737 -7.59751 37658 ft 407 kts 87°
2026-04-21 19:14 64.12847 -7.46715 37658 ft 407 kts 88°
2026-04-21 19:15 64.12943 -7.33850 37655 ft 407 kts 88°
2026-04-21 19:15 64.13037 -7.20906 37658 ft 407 kts 88°
2026-04-21 19:16 64.13122 -7.07956 37662 ft 407 kts 88°
2026-04-21 19:16 64.13191 -6.95023 37660 ft 406 kts 88°
2026-04-21 19:17 64.13272 -6.75607 37655 ft 406 kts 88°
2026-04-21 19:17 64.13311 -6.62676 37658 ft 406 kts 88°
2026-04-21 19:18 64.13335 -6.49737 37658 ft 406 kts 88°
2026-04-21 19:18 64.13321 -6.36795 37651 ft 406 kts 89°
2026-04-21 19:19 64.13258 -6.23855 37658 ft 406 kts 89°
2026-04-21 19:19 64.13190 -6.10925 37660 ft 406 kts 89°
2026-04-21 19:20 64.13120 -5.97992 37646 ft 406 kts 89°
2026-04-21 19:20 64.13028 -5.85055 37645 ft 406 kts 89°
2026-04-21 19:21 64.12931 -5.72132 37643 ft 406 kts 89°
2026-04-21 19:21 64.12831 -5.59203 37651 ft 406 kts 89°
2026-04-21 19:22 64.12715 -5.46273 37652 ft 406 kts 89°
2026-04-21 19:22 64.12578 -5.33352 37646 ft 406 kts 89°
2026-04-21 19:23 64.12433 -5.20444 37646 ft 406 kts 89°
2026-04-21 19:23 64.12276 -5.07523 37645 ft 406 kts 89°
2026-04-21 19:24 64.12116 -4.94698 37645 ft 405 kts 89°
2026-04-21 19:24 64.11942 -4.81807 37649 ft 405 kts 89°
2026-04-21 19:25 64.11751 -4.68905 37650 ft 405 kts 89°
2026-04-21 19:25 64.11546 -4.56008 37645 ft 405 kts 89°
2026-04-21 19:26 64.11336 -4.43128 37636 ft 405 kts 89°
2026-04-21 19:26 64.11113 -4.30245 37634 ft 405 kts 90°
2026-04-21 19:27 64.10879 -4.17378 37631 ft 405 kts 90°
2026-04-21 19:27 64.10634 -4.04478 37633 ft 405 kts 90°
2026-04-21 19:28 64.10377 -3.91593 37651 ft 405 kts 90°
2026-04-21 19:28 64.10111 -3.78716 37639 ft 405 kts 90°
2026-04-21 19:29 64.09839 -3.65841 37634 ft 405 kts 90°
2026-04-21 19:29 64.09553 -3.52965 37631 ft 405 kts 90°
2026-04-21 19:30 64.09246 -3.40090 37626 ft 405 kts 90°
2026-04-21 19:30 64.08928 -3.27213 37627 ft 405 kts 90°
2026-04-21 19:31 64.08604 -3.14345 37630 ft 405 kts 90°
2026-04-21 19:31 64.08267 -3.01491 37626 ft 405 kts 90°
2026-04-21 19:32 64.07923 -2.88710 37628 ft 405 kts 90°
2026-04-21 19:32 64.07565 -2.75857 37622 ft 405 kts 90°
2026-04-21 19:33 64.07197 -2.63019 37623 ft 405 kts 90°
2026-04-21 19:33 64.06820 -2.50181 37619 ft 405 kts 91°
2026-04-21 19:34 64.06423 -2.37339 37619 ft 405 kts 91°
2026-04-21 19:34 64.06014 -2.24500 37626 ft 405 kts 91°
2026-04-21 19:35 64.05392 -2.05238 37617 ft 405 kts 91°
2026-04-21 19:36 64.05034 -1.94573 37620 ft 405 kts 91°
2026-04-21 19:36 64.04590 -1.81741 37614 ft 406 kts 91°
2026-04-21 19:37 64.04130 -1.68906 37615 ft 406 kts 91°
2026-04-21 19:37 64.03670 -1.56085 37632 ft 406 kts 91°
2026-04-21 19:38 64.03199 -1.43210 37613 ft 407 kts 91°
2026-04-21 19:38 64.02715 -1.30334 37607 ft 408 kts 91°
2026-04-21 19:39 64.02213 -1.17454 37600 ft 408 kts 92°
2026-04-21 19:39 64.01693 -1.04561 37601 ft 408 kts 92°
2026-04-21 19:40 64.01167 -0.91672 37601 ft 409 kts 92°
2026-04-21 19:40 64.00634 -0.78861 37603 ft 409 kts 92°
2026-04-21 19:41 64.00088 -0.65967 37603 ft 409 kts 92°
2026-04-21 19:41 63.99530 -0.53086 37599 ft 409 kts 92°
2026-04-21 19:42 63.98963 -0.40208 37600 ft 409 kts 92°
2026-04-21 19:42 63.98376 -0.27335 37613 ft 409 kts 92°
2026-04-21 19:43 63.97780 -0.14452 37607 ft 409 kts 92°
2026-04-21 19:43 63.97162 -0.01585 37616 ft 409 kts 93°
2026-04-21 19:44 63.96478 0.11264 37610 ft 409 kts 93°
2026-04-21 19:44 63.95778 0.24126 37608 ft 409 kts 93°
2026-04-21 19:45 63.95081 0.36955 37603 ft 409 kts 93°
2026-04-21 19:45 63.94371 0.49813 37602 ft 409 kts 94°
2026-04-21 19:46 63.93661 0.62556 37592 ft 409 kts 94°
2026-04-21 19:46 63.92930 0.75485 37593 ft 409 kts 94°
2026-04-21 19:47 63.92188 0.88298 37601 ft 409 kts 94°
2026-04-21 19:47 63.91429 1.01042 37596 ft 409 kts 94°
2026-04-21 19:48 63.90670 1.13856 37598 ft 410 kts 94°
2026-04-21 19:48 63.89898 1.26675 37591 ft 410 kts 94°
2026-04-21 19:49 63.89106 1.39481 37584 ft 410 kts 94°
2026-04-21 19:49 63.88306 1.52287 37585 ft 410 kts 94°
2026-04-21 19:50 63.87495 1.65081 37589 ft 410 kts 94°
2026-04-21 19:50 63.86672 1.77885 37586 ft 410 kts 94°
2026-04-21 19:51 63.85836 1.90679 37582 ft 410 kts 95°
2026-04-21 19:51 63.84992 2.03469 37584 ft 410 kts 95°
2026-04-21 19:52 63.84142 2.16256 37586 ft 410 kts 95°
2026-04-21 19:52 63.83268 2.29025 37581 ft 410 kts 95°
2026-04-21 19:53 63.82386 2.41799 37584 ft 410 kts 95°
2026-04-21 19:53 63.81495 2.54568 37577 ft 411 kts 95°
2026-04-21 19:54 63.80596 2.67338 37577 ft 411 kts 95°
2026-04-21 19:54 63.79680 2.80109 37573 ft 411 kts 95°
2026-04-21 19:55 63.78753 2.92873 37573 ft 411 kts 95°
2026-04-21 19:55 63.77810 3.05625 37572 ft 411 kts 95°
2026-04-21 19:56 63.76865 3.18375 37579 ft 411 kts 95°
2026-04-21 19:56 63.75904 3.31139 37571 ft 412 kts 95°
2026-04-21 19:57 63.74930 3.43891 37565 ft 412 kts 96°
2026-04-21 19:57 63.73947 3.56634 37565 ft 412 kts 96°
2026-04-21 19:58 63.72960 3.69302 37563 ft 412 kts 96°
2026-04-21 19:58 63.71952 3.82045 37562 ft 413 kts 96°
2026-04-21 19:59 63.70926 3.94784 37574 ft 413 kts 96°
2026-04-21 19:59 63.69894 4.07542 37558 ft 413 kts 96°
2026-04-21 20:00 63.68852 4.20283 37565 ft 413 kts 96°
2026-04-21 20:00 63.67798 4.33019 37563 ft 414 kts 96°
2026-04-21 20:01 63.66732 4.45755 37582 ft 414 kts 97°
2026-04-21 20:01 63.65646 4.58518 37564 ft 415 kts 97°
2026-04-21 20:02 63.64554 4.71290 37557 ft 416 kts 97°
2026-04-21 20:02 63.63453 4.84084 37554 ft 417 kts 97°
2026-04-21 20:03 63.62330 4.96872 37547 ft 417 kts 97°
2026-04-21 20:03 63.61193 5.09664 37549 ft 417 kts 97°
2026-04-21 20:04 63.60045 5.22448 37551 ft 417 kts 97°
2026-04-21 20:04 63.58890 5.35235 37553 ft 418 kts 97°
2026-04-21 20:05 63.57720 5.48016 37560 ft 418 kts 97°
2026-04-21 20:05 63.56541 5.60796 37550 ft 419 kts 97°
2026-04-21 20:06 63.55350 5.73595 37549 ft 419 kts 97°
2026-04-21 20:06 63.54143 5.86401 37551 ft 420 kts 98°
2026-04-21 20:07 63.52918 5.99211 37551 ft 420 kts 98°
2026-04-21 20:07 63.51683 6.12003 37555 ft 420 kts 98°
2026-04-21 20:08 63.50433 6.24811 37557 ft 421 kts 98°
2026-04-21 20:08 63.49175 6.37615 37550 ft 421 kts 98°
2026-04-21 20:09 63.47906 6.50423 37539 ft 421 kts 98°
2026-04-21 20:09 63.46625 6.63205 37538 ft 421 kts 98°
2026-04-21 20:10 63.45332 6.75984 37528 ft 421 kts 98°
2026-04-21 20:10 63.44024 6.88761 37529 ft 422 kts 98°
2026-04-21 20:11 63.42708 7.01530 37531 ft 422 kts 98°
2026-04-21 20:11 63.41376 7.14292 37528 ft 422 kts 99°
2026-04-21 20:12 63.40037 7.26959 37529 ft 422 kts 99°
2026-04-21 20:12 63.38904 7.37626 37530 ft 422 kts 99°
2026-04-21 20:13 63.37312 7.52514 37530 ft 422 kts 99°
2026-04-21 20:13 63.35945 7.65152 37540 ft 422 kts 99°
2026-04-21 20:14 63.34562 7.77873 37524 ft 423 kts 99°
2026-04-21 20:14 63.33156 7.90686 37522 ft 424 kts 99°
2026-04-21 20:15 63.31747 8.03339 37521 ft 424 kts 99°
2026-04-21 20:15 63.30321 8.16074 37523 ft 424 kts 99°
2026-04-21 20:16 63.28880 8.28789 37520 ft 424 kts 99°
2026-04-21 20:16 63.27424 8.41488 37533 ft 424 kts 99°
2026-04-21 20:17 63.25967 8.54199 37517 ft 425 kts 99°
2026-04-21 20:17 63.24491 8.66916 37514 ft 426 kts 99°
2026-04-21 20:18 63.23238 8.77575 37515 ft 426 kts 99°
2026-04-21 20:18 63.21490 8.92372 37516 ft 427 kts 99°
2026-04-21 20:19 63.19972 9.05091 37519 ft 427 kts 100°
2026-04-21 20:19 63.18441 9.17823 37529 ft 428 kts 100°
2026-04-21 20:20 63.16895 9.30565 37514 ft 429 kts 100°
2026-04-21 20:20 63.15342 9.43327 37513 ft 430 kts 100°
2026-04-21 20:21 63.13766 9.56083 37512 ft 430 kts 100°
2026-04-21 20:21 63.12176 9.68836 37512 ft 430 kts 100°
2026-04-21 20:22 63.10578 9.81569 37504 ft 430 kts 100°
2026-04-21 20:22 63.08156 10.00681 37521 ft 432 kts 101°
2026-04-21 20:23 63.06839 10.11312 37493 ft 432 kts 99°
2026-04-21 20:23 63.05472 10.24201 37485 ft 432 kts 98°
2026-04-21 20:24 63.04182 10.37119 37478 ft 432 kts 98°
2026-04-21 20:24 63.02844 10.50044 37480 ft 433 kts 99°
2026-04-21 20:25 63.01455 10.62963 37496 ft 434 kts 99°
2026-04-21 20:25 63.00042 10.75900 37490 ft 435 kts 99°
2026-04-21 20:26 62.98625 10.88846 37487 ft 436 kts 99°
2026-04-21 20:26 62.97199 11.01788 37487 ft 436 kts 99°
2026-04-21 20:27 62.95766 11.14642 37479 ft 435 kts 99°
2026-04-21 20:27 62.94313 11.27553 37483 ft 436 kts 99°
2026-04-21 20:28 62.92846 11.40480 37489 ft 437 kts 99°
2026-04-21 20:28 62.91362 11.53417 37482 ft 437 kts 99°
2026-04-21 20:29 62.89867 11.66368 37482 ft 438 kts 99°
2026-04-21 20:29 62.88360 11.79300 37479 ft 438 kts 100°
2026-04-21 20:30 62.86839 11.92243 37477 ft 438 kts 100°
2026-04-21 20:30 62.85305 12.05158 37486 ft 439 kts 100°
2026-04-21 20:31 62.83752 12.18099 37475 ft 440 kts 100°
2026-04-21 20:31 62.82192 12.31038 37454 ft 440 kts 100°
2026-04-21 20:32 62.80627 12.43971 37452 ft 440 kts 100°
2026-04-21 20:32 62.79046 12.56900 37453 ft 440 kts 101°
2026-04-21 20:33 62.77440 12.69806 37436 ft 440 kts 101°
2026-04-21 20:33 62.75821 12.82703 37459 ft 441 kts 101°
2026-04-21 20:34 62.74195 12.95626 37434 ft 441 kts 101°
2026-04-21 20:34 62.72559 13.08528 37426 ft 442 kts 101°
2026-04-21 20:35 62.70905 13.21439 37417 ft 442 kts 101°
2026-04-21 20:35 62.69243 13.34320 37418 ft 442 kts 101°
2026-04-21 20:36 62.67566 13.47184 37434 ft 442 kts 101°
2026-04-21 20:36 62.65874 13.60048 37420 ft 443 kts 101°
2026-04-21 20:37 62.64169 13.72932 37399 ft 443 kts 101°
2026-04-21 20:37 62.62451 13.85815 37400 ft 444 kts 101°
2026-04-21 20:38 62.60720 13.98687 37419 ft 444 kts 102°
2026-04-21 20:38 62.58985 14.11469 37398 ft 445 kts 102°
2026-04-21 20:39 62.57223 14.24332 37409 ft 445 kts 102°
2026-04-21 20:39 62.55452 14.37189 37401 ft 445 kts 102°
2026-04-21 20:40 62.53674 14.50005 37394 ft 444 kts 102°
2026-04-21 20:40 62.51890 14.62799 37389 ft 444 kts 102°
2026-04-21 20:41 62.50093 14.75583 37384 ft 444 kts 102°
2026-04-21 20:41 62.48271 14.88368 37395 ft 445 kts 102°
2026-04-21 20:42 62.46442 15.01145 37378 ft 445 kts 102°
2026-04-21 20:42 62.44603 15.13904 37359 ft 445 kts 102°
2026-04-21 20:43 62.42748 15.26682 37361 ft 446 kts 102°
2026-04-21 20:43 62.40882 15.39451 37356 ft 446 kts 102°
2026-04-21 20:44 62.39001 15.52200 37359 ft 446 kts 103°
2026-04-21 20:44 62.37105 15.64945 37374 ft 447 kts 103°
2026-04-21 20:45 62.35206 15.77623 37353 ft 448 kts 103°
2026-04-21 20:45 62.33283 15.90380 37351 ft 448 kts 103°
2026-04-21 20:46 62.31344 16.03127 37341 ft 448 kts 103°
2026-04-21 20:46 62.29394 16.15862 37341 ft 448 kts 103°
2026-04-21 20:47 62.27436 16.28586 37346 ft 449 kts 103°
2026-04-21 20:47 62.25456 16.41315 37335 ft 450 kts 103°
2026-04-21 20:48 62.23465 16.54053 37320 ft 451 kts 103°
2026-04-21 20:48 62.21460 16.66795 37319 ft 451 kts 104°
2026-04-21 20:49 62.19437 16.79533 37306 ft 452 kts 104°
2026-04-21 20:49 62.17406 16.92259 37332 ft 452 kts 104°
2026-04-21 20:50 62.15360 17.04970 37299 ft 453 kts 104°
2026-04-21 20:50 62.13301 17.17692 37291 ft 453 kts 104°
2026-04-21 20:51 62.11218 17.30412 37281 ft 453 kts 104°
2026-04-21 20:51 62.09134 17.43115 37280 ft 454 kts 104°
2026-04-21 20:52 62.07034 17.55813 37279 ft 454 kts 104°
2026-04-21 20:52 62.04931 17.68413 37268 ft 454 kts 104°
2026-04-21 20:53 62.02792 17.81172 37267 ft 454 kts 105°
2026-04-21 20:53 62.00654 17.93852 37254 ft 455 kts 105°
2026-04-21 20:54 61.98517 18.06432 37259 ft 455 kts 105°
2026-04-21 20:54 61.96349 18.19069 37253 ft 455 kts 105°
2026-04-21 20:55 61.94171 18.31710 37265 ft 456 kts 105°
2026-04-21 20:55 61.91980 18.44342 37229 ft 456 kts 105°
2026-04-21 20:56 61.89766 18.56977 37230 ft 457 kts 105°
2026-04-21 20:56 61.87543 18.69620 37232 ft 458 kts 105°
2026-04-21 20:57 61.85313 18.82258 37235 ft 458 kts 106°
2026-04-21 20:57 61.83062 18.94897 37253 ft 459 kts 106°
2026-04-21 20:58 61.80788 19.07537 37237 ft 460 kts 106°
2026-04-21 20:58 61.78503 19.20163 37236 ft 460 kts 107°
2026-04-21 20:59 61.76214 19.32765 37230 ft 460 kts 107°
2026-04-21 20:59 61.73908 19.45365 37219 ft 460 kts 107°
2026-04-21 21:00 61.71590 19.57932 37241 ft 460 kts 107°
2026-04-21 21:00 61.69266 19.70489 37222 ft 460 kts 107°
2026-04-21 21:01 61.66933 19.83042 37213 ft 460 kts 107°
2026-04-21 21:01 61.64583 19.95575 37200 ft 461 kts 107°
2026-04-21 21:02 61.62208 20.08092 37198 ft 461 kts 107°
2026-04-21 21:02 61.59824 20.20585 37216 ft 461 kts 108°
2026-04-21 21:03 61.57435 20.33090 37206 ft 461 kts 108°
2026-04-21 21:03 61.55030 20.45583 37195 ft 462 kts 108°
2026-04-21 21:04 61.52617 20.58049 37189 ft 462 kts 108°
2026-04-21 21:04 61.50193 20.70502 37186 ft 462 kts 108°
2026-04-21 21:05 61.47768 20.82858 37187 ft 462 kts 108°
2026-04-21 21:05 61.45312 20.95271 37185 ft 462 kts 108°
2026-04-21 21:06 61.42850 21.07673 37180 ft 462 kts 108°
2026-04-21 21:06 61.40377 21.20038 37177 ft 463 kts 108°
2026-04-21 21:07 61.37881 21.32424 37187 ft 463 kts 109°
2026-04-21 21:07 61.35374 21.44811 37183 ft 463 kts 109°
2026-04-21 21:08 61.32868 21.57156 37197 ft 463 kts 109°
2026-04-21 21:08 61.30343 21.69501 37192 ft 463 kts 109°
2026-04-21 21:09 61.27803 21.81818 37187 ft 464 kts 109°
2026-04-21 21:09 61.26525 21.87982 36846 ft 462 kts 109°
2026-04-21 21:09 61.25270 21.94006 36736 ft 447 kts 109°
2026-04-21 21:10 61.24041 21.99878 36343 ft 440 kts 109°
2026-04-21 21:10 61.22826 22.05688 35794 ft 437 kts 109°
2026-04-21 21:10 61.21619 22.11453 35280 ft 434 kts 109°
2026-04-21 21:10 61.20419 22.17180 34705 ft 433 kts 109°
2026-04-21 21:11 61.19222 22.22890 34156 ft 431 kts 109°
2026-04-21 21:11 61.18026 22.28576 33563 ft 428 kts 110°
2026-04-21 21:11 61.17240 22.32293 33224 ft 425 kts 110°
2026-04-21 21:11 61.16058 22.37870 32686 ft 421 kts 110°
2026-04-21 21:12 61.14886 22.43381 32159 ft 417 kts 111°
2026-04-21 21:12 61.13722 22.48850 31645 ft 413 kts 111°
2026-04-21 21:12 61.12564 22.54265 31133 ft 410 kts 112°
2026-04-21 21:12 61.11414 22.59624 30631 ft 406 kts 112°
2026-04-21 21:13 61.10269 22.64940 30116 ft 403 kts 112°
2026-04-21 21:13 61.09135 22.70194 29596 ft 398 kts 112°
2026-04-21 21:13 61.08012 22.75388 29115 ft 393 kts 113°
2026-04-21 21:13 61.06904 22.80507 28650 ft 388 kts 113°
2026-04-21 21:14 61.05810 22.85562 28191 ft 383 kts 113°
2026-04-21 21:14 61.04726 22.90561 27754 ft 379 kts 113°
2026-04-21 21:14 61.03651 22.95507 27321 ft 376 kts 113°
2026-04-21 21:14 61.02582 23.00400 26900 ft 373 kts 113°
2026-04-21 21:15 61.01518 23.05251 26481 ft 369 kts 113°
2026-04-21 21:15 61.00464 23.10048 26066 ft 366 kts 113°
2026-04-21 21:15 60.99420 23.14795 25644 ft 363 kts 113°
2026-04-21 21:15 60.98379 23.19517 25224 ft 360 kts 113°
2026-04-21 21:16 60.97348 23.24182 24789 ft 357 kts 113°
2026-04-21 21:16 60.96321 23.28811 24359 ft 354 kts 113°
2026-04-21 21:16 60.95297 23.33411 23911 ft 352 kts 113°
2026-04-21 21:16 60.94275 23.37985 23434 ft 351 kts 112°
2026-04-21 21:17 60.93259 23.42523 22974 ft 348 kts 112°
2026-04-21 21:17 60.92248 23.47029 22529 ft 345 kts 112°
2026-04-21 21:17 60.91250 23.51490 22098 ft 342 kts 112°
2026-04-21 21:17 60.90258 23.55919 21661 ft 340 kts 112°
2026-04-21 21:18 60.89274 23.60309 21230 ft 338 kts 112°
2026-04-21 21:18 60.88292 23.64687 20805 ft 337 kts 112°
2026-04-21 21:18 60.87313 23.69039 20379 ft 335 kts 112°
2026-04-21 21:18 60.86333 23.73371 19946 ft 334 kts 112°
2026-04-21 21:19 60.85365 23.77630 19525 ft 333 kts 112°
2026-04-21 21:19 60.84372 23.81994 19107 ft 333 kts 112°
2026-04-21 21:19 60.83406 23.86238 18701 ft 333 kts 112°
2026-04-21 21:19 60.82425 23.90540 18260 ft 333 kts 112°
2026-04-21 21:20 60.81447 23.94814 17835 ft 331 kts 112°
2026-04-21 21:20 60.80457 23.99135 17399 ft 330 kts 112°
2026-04-21 21:20 60.79498 24.03316 16998 ft 328 kts 112°
2026-04-21 21:20 60.78516 24.07591 16599 ft 326 kts 112°
2026-04-21 21:21 60.77551 24.11783 16197 ft 325 kts 112°
2026-04-21 21:21 60.76587 24.15945 15807 ft 324 kts 112°
2026-04-21 21:21 60.75625 24.20099 15399 ft 323 kts 112°
2026-04-21 21:21 60.74663 24.24254 15013 ft 322 kts 112°
2026-04-21 21:22 60.73705 24.28381 14614 ft 321 kts 112°
2026-04-21 21:22 60.72748 24.32499 14208 ft 320 kts 112°
2026-04-21 21:22 60.71792 24.36603 13816 ft 320 kts 112°
2026-04-21 21:22 60.70834 24.40702 13385 ft 319 kts 112°
2026-04-21 21:23 60.69882 24.44770 12985 ft 316 kts 112°
2026-04-21 21:23 60.68936 24.48811 12592 ft 314 kts 112°
2026-04-21 21:23 60.67995 24.52816 12200 ft 312 kts 112°
2026-04-21 21:23 60.67055 24.56809 11799 ft 311 kts 112°
2026-04-21 21:24 60.66122 24.60773 11391 ft 310 kts 112°
2026-04-21 21:24 60.65189 24.64731 10984 ft 309 kts 113°
2026-04-21 21:24 60.64256 24.68671 10564 ft 308 kts 113°
2026-04-21 21:24 60.63327 24.72593 10162 ft 307 kts 113°
2026-04-21 21:25 60.62414 24.76429 10071 ft 294 kts 113°
2026-04-21 21:25 60.61527 24.80142 9659 ft 294 kts 113°
2026-04-21 21:25 60.60626 24.83925 9066 ft 298 kts 114°
2026-04-21 21:25 60.59721 24.87735 8546 ft 300 kts 114°
2026-04-21 21:26 60.58809 24.91570 7997 ft 301 kts 114°
2026-04-21 21:26 60.57893 24.95403 7468 ft 302 kts 114°
2026-04-21 21:26 60.56970 24.99253 6910 ft 303 kts 114°
2026-04-21 21:26 60.56034 25.03134 6296 ft 306 kts 115°
2026-04-21 21:27 60.55106 25.06968 6061 ft 295 kts 115°
2026-04-21 21:27 60.54237 25.10554 5989 ft 278 kts 114°
2026-04-21 21:27 60.53306 25.13928 5919 ft 264 kts 126°
2026-04-21 21:27 60.52046 25.16616 5382 ft 268 kts 135°
2026-04-21 21:28 60.50640 25.19229 4641 ft 279 kts 136°
2026-04-21 21:28 60.49197 25.21867 4252 ft 276 kts 136°
2026-04-21 21:28 60.46029 25.25056 3975 ft 251 kts 187°
2026-04-21 21:29 60.44462 25.23698 3561 ft 247 kts 221°
2026-04-21 21:29 60.43271 25.21227 3221 ft 243 kts 238°
2026-04-21 21:29 60.42302 25.18520 2933 ft 230 kts 235°
2026-04-21 21:29 60.41314 25.16188 2622 ft 214 kts 231°
2026-04-21 21:30 60.40343 25.14027 2333 ft 201 kts 231°
2026-04-21 21:30 60.39425 25.11993 2067 ft 191 kts 231°
2026-04-21 21:30 60.38549 25.10048 1817 ft 183 kts 231°
2026-04-21 21:30 60.37711 25.08189 1566 ft 175 kts 232°
2026-04-21 21:31 60.36909 25.06415 1347 ft 163 kts 232°
2026-04-21 21:31 60.36181 25.04807 1117 ft 147 kts 233°
2026-04-21 21:31 60.35517 25.03337 922 ft 137 kts 232°
2026-04-21 21:31 60.34889 25.01947 738 ft 131 kts 231°
2026-04-21 21:32 60.34282 25.00602 563 ft 128 kts 230°
2026-04-21 21:32 60.33688 24.99283 354 ft 126 kts 230°
2026-04-21 21:32 60.33106 24.97999 228 ft 123 kts 230°
2026-04-21 21:32 60.32554 24.96793 169 ft 104 kts 229°
2026-04-21 21:33 60.32260 24.96119 166 ft 41 kts 227°
2026-04-21 21:33 60.32086 24.95817 163 ft 26 kts 184°
2026-04-21 21:33 60.31990 24.95927 162 ft 5 kts 133°
2026-04-21 21:33 60.31970 24.95978 162 ft 5 kts 118°
2026-04-21 21:34 60.31975 24.96044 163 ft 5 kts 60°
2026-04-21 21:34 60.31998 24.96111 163 ft 6 kts 51°
2026-04-21 21:34 60.32031 24.96178 164 ft 7 kts 45°
2026-04-21 21:34 60.32067 24.96263 164 ft 8 kts 51°
2026-04-21 21:35 60.32109 24.96359 165 ft 10 kts 46°
2026-04-21 21:35 60.32167 24.96482 166 ft 14 kts 47°
2026-04-21 21:35 60.32240 24.96651 167 ft 18 kts 51°
2026-04-21 21:35 60.32194 24.96795 169 ft 16 kts 150°
2026-04-21 21:36 60.32109 24.96880 170 ft 7 kts 168°
2026-04-21 21:36 60.32087 24.96879 171 ft 3 kts 185°
2026-04-21 21:36 60.32050 24.96862 171 ft 8 kts 192°
2026-04-21 21:36 60.32013 24.96845 171 ft 3 kts 194°
2026-04-21 21:37 60.32007 24.96842 171 ft 0 kts 195°